Other Public Products
Issued by NWS Charleston, SC

Current Version | Previous Version | Graphics & Text | Print | Product List | Glossary On
Versions: 1 2 3 4 5 6 7 8 9 10 11 12 13 14 15 16 17 18 19 20 21 22 23 24 25 26 27 28 29 30 31 32 33 34 35 36 37 38 39 40 41 42 43 44 45 46 47 48 49 50
000
FPUS82 KCHS 242212
OPUCHS

TEST...KCHS/KSAV Gateway Observations...TEST
National Weather Service Charleston SC
600 PM EDT TUE APR 24 2018

NOTE: "fair" indicates few or no clouds below 12,000 feet with no
significant weather and/or obstructions to visibility.

SCZ050-WAZ558-NCZ071-TXZ119-213-PAZ071-DCZ001-FLZ074-172-MI076-
NYZ176-178-MAZ016-IL014-TNZ027-NJZ106-GAZ044-MD014-242300-

...Gateway Observations for Charleston International...

CITY           SKY/WX    TMP DP  RH WIND       PRES   REMARKS
Chas Airport   FAIR      76  60  57 SW13      29.79S
Seattle        PTSUNNY   76  37  24 NW13      30.10F
Charlotte      PTSUNNY   66  64  93 N6        29.78S
Dallas DFW     PTSUNNY   84  47  27 E6        29.99F
Dallas Love    PTSUNNY   84  50  30 E9        30.00F
Philladelphia  CLOUDY    60  44  55 E15       30.18F
Wash National  LGT RAIN  59  52  77 E9        30.08F
Baltimore      LGT RAIN  58  52  80 E12       30.09F
Miami          FAIR      88  67  49 W12G20    29.89R HX  91
Detroit        LGT RAIN  53  49  86 E8        30.01F FOG
Newark         CLOUDY    59  45  59 SE13G21   30.25F
Laguardia      CLOUDY    61  40  45 SE14      30.25S
J F K          CLOUDY    57  42  57 SE17      30.26F
Boston Logan   PTSUNNY   60  35  39 S17       30.27S
Ft. Lauderdale PTSUNNY   89  67  47 W18G24    29.88R HX  92
Chicago O`Hare FAIR      63  47  55 NE10      29.98R
Chicago Midway PTSUNNY   63  49  60 N9        29.98S
Houston Bush   PTSUNNY   84  59  42 VRB3      29.99F
Houston Hobby  PTSUNNY   85  57  38 N5        29.98F
Nashville      PTSUNNY   63  56  78 NW12      29.90R
Atlanta        PTSUNNY   66  55  67 W12       29.85S

$$

GAZ044-118-TXZ119-213-NCZ071-DCZ001-MDZ014-506-PAZ021-071-NJZ106-
NYZ176-178-MAZ106-OHZ011-021-055-MIZ076-KYZ091-ILZ014-INZ047-
MNZ060-ONZ431-242300-

...Gateway Observations for Savannah International...

CITY           SKY/WX    TMP DP  RH WIND       PRES   REMARKS
Savannah Arpt  PTSUNNY   76  54  46 W13       29.82S
Atlanta        PTSUNNY   66  55  67 W12       29.85S
Charlotte      PTSUNNY   66  64  93 N6        29.78S
Dallas DFW     PTSUNNY   84  47  27 E6        29.99F
Houston Bush   PTSUNNY   84  59  42 VRB3      29.99F
Wash National  LGT RAIN  59  52  77 E9        30.08F
Wash Dulles    LGT RAIN  56  53  90 E8        30.07F
Baltimore      LGT RAIN  58  52  80 E12       30.09F
Philadelphia   CLOUDY    60  44  55 E15       30.18F
Newark         CLOUDY    59  45  59 SE13G21   30.25F
Laguardia      CLOUDY    61  40  45 SE14      30.25S
J F K          CLOUDY    57  42  57 SE17      30.26F
Boston         PTSUNNY   60  35  39 S17       30.27S
Pittsburg      LGT RAIN  52  51  97 E7        29.99F
Akron          CLOUDY    54  50  86 E10       29.98F FOG
Cleveland      LGT RAIN  56  51  84 SE14      30.00F
Cincinnati     DRIZZLE   56  55  97 N7        29.89S FOG
Columbus       DRIZZLE   54  54  99 E10       29.91S
Detroit        LGT RAIN  53  49  86 E8        30.01F FOG
Chicago O`Hare FAIR      63  47  55 NE10      29.98R
Minneapolis    PTSUNNY   57  36  45 N16       30.18R
Indianapolis   CLOUDY    56  53  90 N8        29.93R
Toronto Canada CLOUDY    50  39  66 SE8       30.09R

$$




USA.gov is the U.S. government's official web portal to all federal, state and local government web resources and services.